Flag for Canada Weather past 2 weeks in Eureka, Nunavut Territory, Canada

Now
45 °F

Passing clouds.


Feels Like: 41 °F
Forecast: 38 / 46 °F
Wind: 7 mph from Southeast

Location: Eureka

Current Time: Jul 24, 2014 at 11:13:46 PM

Latest Report: Jul 24, 2014 at 10:00 PM


Visibility: 15 mi

Pressure: 29.90 "Hg

Humidity: 57%

Dew point: 30 °F

Location of EurekaLocation

Historic Weather in Eureka — Graph

°F

Eureka temperature yesterday

Maximum temperature yesterday: 46 °F (at 10:00 AM)
Minimum temperature yesterday: 37 °F (at 9:00 PM)
Average temperature yesterday: 41 °F

Past Weeks' High & Low Weather Summary

 TemperatureHumidityPressure
High55 °F (Jul 18, 5:00 PM)87% (Jul 17, 8:00 AM)30.13 "Hg (Jul 17, 8:00 AM)
Low36 °F (Jul 10, 2:00 AM)44% (Jul 15, 7:00 PM)29.52 "Hg (Jul 22, 10:00 PM)
Average43 °F69%29.77 "Hg
* Reported Jul 9 10:00 PM — Jul 24 10:00 PM, Eureka, Weather by CustomWeather, © 2014

Note: Actual official high and low records may vary slightly from our data, if they occured in-between our weather recording intervals... More about our weather records

Advertising

Eureka weather history for previous 24 hours

 ConditionsComfort  
Time TempWeatherWind HumidityBarometerVisibility
10:00 PM
Jul 24
45 °FPassing clouds.7 mph57%29.90 "Hg15 mi
9:00 PM45 °FPassing clouds.9 mph61%29.91 "Hg15 mi
8:00 PM43 °FScattered clouds.9 mph66%29.91 "Hg15 mi
7:00 PM43 °FBroken clouds.12 mph61%29.91 "Hg15 mi
6:00 PM43 °FPartly sunny.13 mph66%29.91 "Hg15 mi
5:00 PM43 °FPartly sunny.14 mph66%29.91 "Hg15 mi
4:00 PM43 °FPartly sunny.13 mph66%29.91 "Hg15 mi
3:00 PM43 °FPartly sunny.14 mph61%29.90 "Hg15 mi
2:00 PM43 °FBroken clouds.16 mph66%29.90 "Hg15 mi
1:00 PM43 °FPartly sunny.18 mph66%29.89 "Hg15 mi
12:00 PM43 °FPartly sunny.17 mph61%29.88 "Hg15 mi
11:00 AM39 °FPartly sunny.20 mph70%29.88 "Hg15 mi
10:00 AM39 °FPartly sunny.21 mph70%29.87 "Hg15 mi
9:00 AM39 °FPartly sunny.20 mph70%29.87 "Hg15 mi
8:00 AM39 °FPartly sunny.20 mph70%29.85 "Hg15 mi
7:00 AM37 °FPartly sunny.14 mph75%29.86 "Hg15 mi
6:00 AM37 °FBroken clouds.14 mph75%29.85 "Hg15 mi
5:00 AM37 °FPartly sunny.9 mph75%29.85 "Hg15 mi
4:00 AM37 °FPartly sunny.14 mph70%29.84 "Hg15 mi
3:00 AM36 °FPartly sunny.9 mph75%29.82 "Hg15 mi
2:00 AM36 °FBroken clouds.14 mph75%29.79 "Hg15 mi
1:00 AM36 °FScattered clouds.15 mph75%29.77 "Hg15 mi
Weather by CustomWeather, © 2014

See weather overviewHow to use our weather pages